Time,TemperatureF,DewpointF,PressureIn,WindDirection,WindDirectionDegrees,WindSpeedMPH,WindSpeedGustMPH,Humidity,HourlyPrecipIn,Conditions,Clouds,dailyrainin,SoftwareType,DateUTC
2013-05-03 00:00:00,58.3,36.5,30.20,East,86,0.0,0.0,44,0.00,,,0.00,Wunderground v.1.15,2013-05-03 04:00:00,
2013-05-03 00:02:00,58.2,36.4,30.20,East,86,0.0,0.0,44,0.00,,,0.00,Wunderground v.1.15,2013-05-03 04:02:00,
2013-05-03 00:03:00,58.1,36.3,30.20,East,86,0.0,0.0,44,0.00,,,0.00,Wunderground v.1.15,2013-05-03 04:03:00,
2013-05-03 00:04:00,58.1,35.7,30.20,East,86,0.0,0.0,43,0.00,,,0.00,Wunderground v.1.15,2013-05-03 04:04:00,
2013-05-03 00:09:00,57.7,36.5,30.20,East,86,0.0,0.0,45,0.00,,,0.00,Wunderground v.1.15,2013-05-03 04:09:00,
2013-05-03 00:10:00,57.7,35.9,30.20,East,86,0.0,0.0,44,0.00,,,0.00,Wunderground v.1.15,2013-05-03 04:10:00,
2013-05-03 00:15:00,57.3,36.1,30.20,East,86,0.0,0.0,45,0.00,,,0.00,Wunderground v.1.15,2013-05-03 04:15:00,
2013-05-03 00:20:00,57.0,36.4,30.20,East,86,0.0,0.0,46,0.00,,,0.00,Wunderground v.1.15,2013-05-03 04:20:00,
2013-05-03 00:25:00,56.6,35.5,30.20,East,86,0.0,0.0,45,0.00,,,0.00,Wunderground v.1.15,2013-05-03 04:25:00,
2013-05-03 00:30:00,56.3,35.8,30.20,East,86,0.0,0.0,46,0.00,,,0.00,Wunderground v.1.15,2013-05-03 04:30:00,
2013-05-03 00:35:00,56.0,35.5,30.20,East,86,0.0,0.0,46,0.00,,,0.00,Wunderground v.1.15,2013-05-03 04:35:00,
2013-05-03 00:40:00,56.0,36.6,30.21,East,86,0.0,0.0,48,0.00,,,0.00,Wunderground v.1.15,2013-05-03 04:40:00,
2013-05-03 00:46:00,55.9,35.9,30.21,East,86,0.0,0.0,47,0.00,,,0.00,Wunderground v.1.15,2013-05-03 04:46:00,
2013-05-03 00:51:00,56.0,36.0,30.20,East,96,0.0,0.0,47,0.00,,,0.00,Wunderground v.1.15,2013-05-03 04:51:00,
2013-05-03 00:56:00,56.3,36.3,30.20,East,94,0.0,1.0,47,0.00,,,0.00,Wunderground v.1.15,2013-05-03 04:56:00,
2013-05-03 01:01:00,56.1,36.1,30.20,East,97,0.0,0.0,47,0.00,,,0.00,Wunderground v.1.15,2013-05-03 05:01:00,
2013-05-03 01:06:00,56.0,37.6,30.20,East,97,0.0,0.0,50,0.00,,,0.00,Wunderground v.1.15,2013-05-03 05:06:00,
2013-05-03 01:11:00,55.6,36.7,30.20,East,97,0.0,0.0,49,0.00,,,0.00,Wunderground v.1.15,2013-05-03 05:11:00,
2013-05-03 01:17:00,55.2,36.4,30.20,East,98,0.0,0.0,49,0.00,,,0.00,Wunderground v.1.15,2013-05-03 05:17:00,
2013-05-03 01:23:00,54.9,36.6,30.20,East,98,0.0,1.0,50,0.00,,,0.00,Wunderground v.1.15,2013-05-03 05:23:00,
2013-05-03 01:28:00,54.7,36.9,30.20,East,98,0.0,1.0,51,0.00,,,0.00,Wunderground v.1.15,2013-05-03 05:28:00,
2013-05-03 01:33:00,54.6,36.8,30.20,ESE,113,0.0,0.0,51,0.00,,,0.00,Wunderground v.1.15,2013-05-03 05:33:00,
2013-05-03 01:38:00,54.4,36.6,30.20,ESE,113,0.0,0.0,51,0.00,,,0.00,Wunderground v.1.15,2013-05-03 05:38:00,
2013-05-03 01:43:00,54.2,36.9,30.20,ESE,113,0.0,0.0,52,0.00,,,0.00,Wunderground v.1.15,2013-05-03 05:43:00,
2013-05-03 01:49:00,53.8,36.6,30.20,ESE,113,0.0,0.0,52,0.00,,,0.00,Wunderground v.1.15,2013-05-03 05:49:00,
2013-05-03 01:54:00,53.5,38.2,30.20,ESE,113,0.0,0.0,56,0.00,,,0.00,Wunderground v.1.15,2013-05-03 05:54:00,
2013-05-03 01:59:00,53.3,38.9,30.20,ESE,113,0.0,0.0,58,0.00,,,0.00,Wunderground v.1.15,2013-05-03 05:59:00,
2013-05-03 02:04:00,53.0,37.3,30.20,ESE,113,0.0,0.0,55,0.00,,,0.00,Wunderground v.1.15,2013-05-03 06:04:00,
2013-05-03 02:09:00,52.9,36.7,30.20,ESE,115,0.0,0.0,54,0.00,,,0.00,Wunderground v.1.15,2013-05-03 06:09:00,
2013-05-03 02:15:00,53.0,37.7,30.20,ESE,115,0.0,0.0,56,0.00,,,0.00,Wunderground v.1.15,2013-05-03 06:15:00,
2013-05-03 02:20:00,53.0,37.7,30.20,ESE,115,0.0,0.0,56,0.00,,,0.00,Wunderground v.1.15,2013-05-03 06:20:00,
2013-05-03 02:25:00,52.9,38.1,30.19,ESE,115,0.0,0.0,57,0.00,,,0.00,Wunderground v.1.15,2013-05-03 06:25:00,
2013-05-03 02:30:00,52.7,39.2,30.20,ESE,115,0.0,0.0,60,0.00,,,0.00,Wunderground v.1.15,2013-05-03 06:30:00,
2013-05-03 02:35:00,52.4,37.6,30.20,ESE,116,0.0,0.0,57,0.00,,,0.00,Wunderground v.1.15,2013-05-03 06:35:00,
2013-05-03 02:41:00,52.5,39.4,30.19,ESE,114,0.0,0.0,61,0.00,,,0.00,Wunderground v.1.15,2013-05-03 06:41:00,
2013-05-03 02:46:00,52.4,39.8,30.19,ESE,114,0.0,0.0,62,0.00,,,0.00,Wunderground v.1.15,2013-05-03 06:46:00,
2013-05-03 02:51:00,52.1,38.6,30.19,ESE,115,0.0,0.0,60,0.00,,,0.00,Wunderground v.1.15,2013-05-03 06:51:00,
2013-05-03 02:56:00,51.9,39.3,30.19,ESE,115,0.0,0.0,62,0.00,,,0.00,Wunderground v.1.15,2013-05-03 06:56:00,
2013-05-03 03:01:00,51.5,38.1,30.19,ESE,115,0.0,0.0,60,0.00,,,0.00,Wunderground v.1.15,2013-05-03 07:01:00,
2013-05-03 03:06:00,51.4,37.5,30.19,ESE,115,0.0,0.0,59,0.00,,,0.00,Wunderground v.1.15,2013-05-03 07:06:00,
2013-05-03 03:11:00,51.2,37.4,30.19,ESE,115,0.0,0.0,59,0.00,,,0.00,Wunderground v.1.15,2013-05-03 07:11:00,
2013-05-03 03:17:00,51.0,38.8,30.19,ESE,115,0.0,0.0,63,0.00,,,0.00,Wunderground v.1.15,2013-05-03 07:17:00,
2013-05-03 03:22:00,50.8,37.8,30.19,ESE,116,0.0,0.0,61,0.00,,,0.00,Wunderground v.1.15,2013-05-03 07:22:00,
2013-05-03 03:27:00,50.8,38.2,30.19,ESE,116,0.0,0.0,62,0.00,,,0.00,Wunderground v.1.15,2013-05-03 07:27:00,
2013-05-03 03:32:00,50.7,38.1,30.19,ESE,115,0.0,0.0,62,0.00,,,0.00,Wunderground v.1.15,2013-05-03 07:32:00,
2013-05-03 03:37:00,50.9,39.1,30.19,ESE,115,0.0,0.0,64,0.00,,,0.00,Wunderground v.1.15,2013-05-03 07:37:00,
2013-05-03 03:42:00,50.8,39.5,30.19,ESE,115,0.0,0.0,65,0.00,,,0.00,Wunderground v.1.15,2013-05-03 07:42:00,
2013-05-03 03:48:00,50.5,39.9,30.19,ESE,116,0.0,0.0,67,0.00,,,0.00,Wunderground v.1.15,2013-05-03 07:48:00,
2013-05-03 03:53:00,50.3,40.9,30.19,ESE,115,0.0,0.0,70,0.00,,,0.00,Wunderground v.1.15,2013-05-03 07:53:00,
2013-05-03 03:58:00,50.0,40.6,30.19,ESE,115,0.0,0.0,70,0.00,,,0.00,Wunderground v.1.15,2013-05-03 07:58:00,
2013-05-03 04:03:00,49.7,40.3,30.19,ESE,115,0.0,0.0,70,0.00,,,0.00,Wunderground v.1.15,2013-05-03 08:03:00,
2013-05-03 04:09:00,49.9,40.5,30.19,ESE,115,0.0,0.0,70,0.00,,,0.00,Wunderground v.1.15,2013-05-03 08:09:00,
2013-05-03 04:14:00,50.0,40.6,30.19,ESE,113,0.0,0.0,70,0.00,,,0.00,Wunderground v.1.15,2013-05-03 08:14:00,
2013-05-03 04:19:00,50.3,40.9,30.19,East,85,0.0,0.0,70,0.00,,,0.00,Wunderground v.1.15,2013-05-03 08:19:00,
2013-05-03 04:24:00,50.4,41.0,30.19,East,84,0.0,1.0,70,0.00,,,0.00,Wunderground v.1.15,2013-05-03 08:24:00,
2013-05-03 04:29:00,50.6,41.2,30.19,ESE,120,0.0,1.0,70,0.00,,,0.00,Wunderground v.1.15,2013-05-03 08:29:00,
2013-05-03 04:34:00,50.6,41.2,30.19,ESE,110,0.0,0.0,70,0.00,,,0.00,Wunderground v.1.15,2013-05-03 08:34:00,
2013-05-03 04:40:00,50.8,41.4,30.19,East,92,0.0,0.0,70,0.00,,,0.00,Wunderground v.1.15,2013-05-03 08:40:00,
2013-05-03 04:45:00,51.0,41.2,30.19,East,94,0.0,2.0,69,0.00,,,0.00,Wunderground v.1.15,2013-05-03 08:45:00,
2013-05-03 04:50:00,51.3,41.1,30.19,ESE,102,0.0,1.0,68,0.00,,,0.00,Wunderground v.1.15,2013-05-03 08:50:00,
2013-05-03 04:55:00,51.3,41.1,30.19,ESE,104,0.0,1.0,68,0.00,,,0.00,Wunderground v.1.15,2013-05-03 08:55:00,
2013-05-03 05:01:00,51.3,41.1,30.19,ESE,109,0.0,1.0,68,0.00,,,0.00,Wunderground v.1.15,2013-05-03 09:01:00,
2013-05-03 05:07:00,51.3,41.1,30.19,ESE,104,1.0,1.0,68,0.00,,,0.00,Wunderground v.1.15,2013-05-03 09:07:00,
2013-05-03 05:12:00,51.3,41.1,30.19,East,101,1.0,2.0,68,0.00,,,0.00,Wunderground v.1.15,2013-05-03 09:12:00,
2013-05-03 05:17:00,51.4,41.2,30.19,ESE,103,1.0,2.0,68,0.00,,,0.00,Wunderground v.1.15,2013-05-03 09:17:00,
2013-05-03 05:23:00,51.2,41.0,30.19,East,100,1.0,1.0,68,0.00,,,0.00,Wunderground v.1.15,2013-05-03 09:23:00,
2013-05-03 05:28:00,51.1,41.3,30.19,SE,127,1.0,2.0,69,0.00,,,0.00,Wunderground v.1.15,2013-05-03 09:28:00,
2013-05-03 05:33:00,51.2,41.4,30.19,East,96,1.0,2.0,69,0.00,,,0.00,Wunderground v.1.15,2013-05-03 09:33:00,
2013-05-03 05:38:00,51.2,41.4,30.20,ESE,108,1.0,2.0,69,0.00,,,0.00,Wunderground v.1.15,2013-05-03 09:38:00,
2013-05-03 05:44:00,51.2,41.4,30.20,ESE,103,1.0,1.0,69,0.00,,,0.00,Wunderground v.1.15,2013-05-03 09:44:00,
2013-05-03 05:49:00,51.1,41.3,30.20,ESE,111,1.0,1.0,69,0.00,,,0.00,Wunderground v.1.15,2013-05-03 09:49:00,
2013-05-03 05:54:00,50.9,40.7,30.20,East,98,0.0,1.0,68,0.00,,,0.00,Wunderground v.1.15,2013-05-03 09:54:00,
2013-05-03 05:59:00,51.1,40.9,30.20,East,96,1.0,2.0,68,0.00,,,0.00,Wunderground v.1.15,2013-05-03 09:59:00,
2013-05-03 06:04:00,51.5,40.9,30.20,East,97,1.0,2.0,67,0.00,,,0.00,Wunderground v.1.15,2013-05-03 10:04:00,
2013-05-03 06:09:00,51.5,40.9,30.20,East,98,1.0,2.0,67,0.00,,,0.00,Wunderground v.1.15,2013-05-03 10:09:00,
2013-05-03 06:15:00,51.4,40.8,30.21,SSW,203,1.0,1.0,67,0.00,,,0.00,Wunderground v.1.15,2013-05-03 10:15:00,
2013-05-03 06:20:00,51.3,41.1,30.21,ESE,107,1.0,1.0,68,0.00,,,0.00,Wunderground v.1.15,2013-05-03 10:20:00,
2013-05-03 06:25:00,51.1,41.3,30.21,East,99,0.0,1.0,69,0.00,,,0.00,Wunderground v.1.15,2013-05-03 10:25:00,
2013-05-03 06:30:00,50.9,41.1,30.21,ESE,108,0.0,2.0,69,0.00,,,0.00,Wunderground v.1.15,2013-05-03 10:30:00,
2013-05-03 06:36:00,51.0,40.8,30.21,East,98,1.0,2.0,68,0.00,,,0.00,Wunderground v.1.15,2013-05-03 10:36:00,
2013-05-03 06:41:00,51.1,41.3,30.21,ESE,102,0.0,0.0,69,0.00,,,0.00,Wunderground v.1.15,2013-05-03 10:41:00,
2013-05-03 06:46:00,50.9,41.1,30.21,ESE,107,0.0,1.0,69,0.00,,,0.00,Wunderground v.1.15,2013-05-03 10:46:00,
2013-05-03 06:51:00,50.9,41.5,30.21,ESE,103,0.0,1.0,70,0.00,,,0.00,Wunderground v.1.15,2013-05-03 10:51:00,
2013-05-03 06:56:00,51.1,40.9,30.21,East,94,0.0,2.0,68,0.00,,,0.00,Wunderground v.1.15,2013-05-03 10:56:00,
2013-05-03 07:01:00,51.3,41.1,30.21,ESE,103,1.0,1.0,68,0.00,,,0.00,Wunderground v.1.15,2013-05-03 11:01:00,
2013-05-03 07:07:00,51.7,41.5,30.21,ESE,109,0.0,3.0,68,0.00,,,0.00,Wunderground v.1.15,2013-05-03 11:07:00,
2013-05-03 07:12:00,52.1,41.5,30.21,ESE,112,0.0,1.0,67,0.00,,,0.00,Wunderground v.1.15,2013-05-03 11:12:00,
2013-05-03 07:17:00,52.5,41.5,30.21,East,94,0.0,1.0,66,0.00,,,0.00,Wunderground v.1.15,2013-05-03 11:17:00,
2013-05-03 07:22:00,52.8,41.7,30.21,ESE,105,1.0,3.0,66,0.00,,,0.00,Wunderground v.1.15,2013-05-03 11:22:00,
2013-05-03 07:27:00,53.1,41.6,30.21,ESE,123,1.0,3.0,65,0.00,,,0.00,Wunderground v.1.15,2013-05-03 11:27:00,
2013-05-03 07:32:00,53.5,41.6,30.21,ESE,121,1.0,1.0,64,0.00,,,0.00,Wunderground v.1.15,2013-05-03 11:32:00,
2013-05-03 07:37:00,54.2,41.5,30.21,East,82,1.0,3.0,62,0.00,,,0.00,Wunderground v.1.15,2013-05-03 11:37:00,
2013-05-03 07:43:00,54.5,41.7,30.21,ESE,105,1.0,2.0,62,0.00,,,0.00,Wunderground v.1.15,2013-05-03 11:43:00,
2013-05-03 07:48:00,55.1,41.9,30.21,ESE,120,1.0,2.0,61,0.00,,,0.00,Wunderground v.1.15,2013-05-03 11:48:00,
2013-05-03 07:53:00,55.8,42.1,30.21,East,100,1.0,3.0,60,0.00,,,0.00,Wunderground v.1.15,2013-05-03 11:53:00,
2013-05-03 07:58:00,56.4,42.2,30.21,East,91,1.0,5.0,59,0.00,,,0.00,Wunderground v.1.15,2013-05-03 11:58:00,
2013-05-03 08:03:00,56.8,42.6,30.22,ENE,67,1.0,2.0,59,0.00,,,0.00,Wunderground v.1.15,2013-05-03 12:03:00,
2013-05-03 08:09:00,56.8,42.2,30.22,West,271,2.0,2.0,58,0.00,,,0.00,Wunderground v.1.15,2013-05-03 12:09:00,
2013-05-03 08:14:00,56.8,42.6,30.22,East,90,2.0,3.0,59,0.00,,,0.00,Wunderground v.1.15,2013-05-03 12:14:00,
2013-05-03 08:19:00,56.9,42.3,30.22,ENE,70,2.0,4.0,58,0.00,,,0.00,Wunderground v.1.15,2013-05-03 12:19:00,
2013-05-03 08:24:00,57.4,42.3,30.22,East,89,2.0,4.0,57,0.00,,,0.00,Wunderground v.1.15,2013-05-03 12:24:00,
2013-05-03 08:29:00,57.9,42.3,30.22,East,96,3.0,5.0,56,0.00,,,0.00,Wunderground v.1.15,2013-05-03 12:29:00,
2013-05-03 08:34:00,58.4,42.8,30.22,ESE,104,2.0,3.0,56,0.00,,,0.00,Wunderground v.1.15,2013-05-03 12:34:00,
2013-05-03 08:40:00,59.1,42.0,30.22,East,89,2.0,12.0,53,0.00,,,0.00,Wunderground v.1.15,2013-05-03 12:40:00,
2013-05-03 08:45:00,59.9,42.2,30.22,East,80,3.0,12.0,52,0.00,,,0.00,Wunderground v.1.15,2013-05-03 12:45:00,
2013-05-03 08:50:00,60.6,42.4,30.22,ESE,103,3.0,3.0,51,0.00,,,0.00,Wunderground v.1.15,2013-05-03 12:50:00,
2013-05-03 08:55:00,60.9,42.1,30.22,ESE,103,3.0,5.0,50,0.00,,,0.00,Wunderground v.1.15,2013-05-03 12:55:00,
2013-05-03 09:00:00,60.9,42.1,30.22,SW,217,3.0,3.0,50,0.00,,,0.00,Wunderground v.1.15,2013-05-03 13:00:00,
2013-05-03 09:06:00,61.2,41.9,30.22,East,94,3.0,6.0,49,0.00,,,0.00,Wunderground v.1.15,2013-05-03 13:06:00,
2013-05-03 09:11:00,61.5,41.1,30.22,SE,137,3.0,6.0,47,0.00,,,0.00,Wunderground v.1.15,2013-05-03 13:11:00,
2013-05-03 09:16:00,62.0,40.4,30.22,East,93,4.0,6.0,45,0.00,,,0.00,Wunderground v.1.15,2013-05-03 13:16:00,
2013-05-03 09:21:00,63.1,40.8,30.22,East,86,3.0,4.0,44,0.00,,,0.00,Wunderground v.1.15,2013-05-03 13:21:00,
2013-05-03 09:26:00,63.7,40.2,30.22,ESE,106,3.0,7.0,42,0.00,,,0.00,Wunderground v.1.15,2013-05-03 13:26:00,
2013-05-03 09:32:00,64.1,40.5,30.22,SE,141,3.0,5.0,42,0.00,,,0.00,Wunderground v.1.15,2013-05-03 13:32:00,
2013-05-03 09:37:00,64.5,39.6,30.22,SE,131,4.0,5.0,40,0.00,,,0.00,Wunderground v.1.15,2013-05-03 13:37:00,
2013-05-03 09:42:00,64.8,41.8,30.21,East,83,4.0,7.0,43,0.00,,,0.00,Wunderground v.1.15,2013-05-03 13:42:00,
2013-05-03 09:47:00,64.8,40.5,30.21,SSE,153,4.0,7.0,41,0.00,,,0.00,Wunderground v.1.15,2013-05-03 13:47:00,
2013-05-03 09:53:00,65.1,38.8,30.21,SE,127,4.0,10.0,38,0.00,,,0.00,Wunderground v.1.15,2013-05-03 13:53:00,
2013-05-03 09:58:00,65.2,40.3,30.21,East,88,3.0,10.0,40,0.00,,,0.00,Wunderground v.1.15,2013-05-03 13:58:00,
2013-05-03 10:03:00,65.0,40.7,30.21,ESE,114,4.0,7.0,41,0.00,,,0.00,Wunderground v.1.15,2013-05-03 14:03:00,
2013-05-03 10:08:00,65.2,40.3,30.21,ESE,109,4.0,7.0,40,0.00,,,0.00,Wunderground v.1.15,2013-05-03 14:08:00,
2013-05-03 10:13:00,65.5,39.9,30.21,SE,134,3.0,7.0,39,0.00,,,0.00,Wunderground v.1.15,2013-05-03 14:13:00,
2013-05-03 10:18:00,65.8,40.8,30.21,East,87,3.0,7.0,40,0.00,,,0.00,Wunderground v.1.15,2013-05-03 14:18:00,
2013-05-03 10:23:00,66.3,41.2,30.21,ENE,65,3.0,5.0,40,0.00,,,0.00,Wunderground v.1.15,2013-05-03 14:23:00,
2013-05-03 10:29:00,66.6,41.5,30.21,East,100,3.0,8.0,40,0.00,,,0.00,Wunderground v.1.15,2013-05-03 14:29:00,
2013-05-03 10:34:00,67.0,39.1,30.21,ESE,116,4.0,6.0,36,0.00,,,0.00,Wunderground v.1.15,2013-05-03 14:34:00,
2013-05-03 10:39:00,67.2,41.4,30.21,East,95,3.0,6.0,39,0.00,,,0.00,Wunderground v.1.15,2013-05-03 14:39:00,
2013-05-03 10:44:00,67.4,40.9,30.21,SW,222,3.0,5.0,38,0.00,,,0.00,Wunderground v.1.15,2013-05-03 14:44:00,
2013-05-03 10:49:00,67.9,40.7,30.21,WSW,253,3.0,5.0,37,0.00,,,0.00,Wunderground v.1.15,2013-05-03 14:49:00,
2013-05-03 10:55:00,68.1,40.8,30.21,East,99,2.0,5.0,37,0.00,,,0.00,Wunderground v.1.15,2013-05-03 14:55:00,
2013-05-03 11:00:00,68.0,41.4,30.21,ESE,106,3.0,3.0,38,0.00,,,0.00,Wunderground v.1.15,2013-05-03 15:00:00,
2013-05-03 11:05:00,68.4,41.1,30.21,East,79,3.0,7.0,37,0.00,,,0.00,Wunderground v.1.15,2013-05-03 15:05:00,
2013-05-03 11:11:00,69.1,42.4,30.21,East,82,3.0,3.0,38,0.00,,,0.00,Wunderground v.1.15,2013-05-03 15:11:00,
2013-05-03 11:16:00,69.7,39.3,30.21,ESE,105,2.0,4.0,33,0.00,,,0.00,Wunderground v.1.15,2013-05-03 15:16:00,
2013-05-03 11:21:00,70.1,39.6,30.21,ESE,112,2.0,2.0,33,0.00,,,0.00,Wunderground v.1.15,2013-05-03 15:21:00,
2013-05-03 11:27:00,70.2,39.7,30.21,East,86,3.0,5.0,33,0.00,,,0.00,Wunderground v.1.15,2013-05-03 15:27:00,
2013-05-03 11:32:00,70.3,41.3,30.21,East,85,3.0,4.0,35,0.00,,,0.00,Wunderground v.1.15,2013-05-03 15:32:00,
2013-05-03 11:37:00,70.5,40.8,30.21,ESE,103,3.0,5.0,34,0.00,,,0.00,Wunderground v.1.15,2013-05-03 15:37:00,
2013-05-03 11:42:00,70.8,40.3,30.21,ESE,116,3.0,6.0,33,0.00,,,0.00,Wunderground v.1.15,2013-05-03 15:42:00,
2013-05-03 11:47:00,71.0,40.4,30.21,ESE,122,3.0,6.0,33,0.00,,,0.00,Wunderground v.1.15,2013-05-03 15:47:00,
2013-05-03 11:52:00,71.5,40.9,30.21,East,87,3.0,4.0,33,0.00,,,0.00,Wunderground v.1.15,2013-05-03 15:52:00,
2013-05-03 11:58:00,72.2,43.8,30.20,SE,124,3.0,5.0,36,0.00,,,0.00,Wunderground v.1.15,2013-05-03 15:58:00,
2013-05-03 12:03:00,72.0,39.7,30.21,SW,226,4.0,6.0,31,0.00,,,0.00,Wunderground v.1.15,2013-05-03 16:03:00,
2013-05-03 12:08:00,71.8,41.1,30.20,WSW,242,4.0,6.0,33,0.00,,,0.00,Wunderground v.1.15,2013-05-03 16:08:00,
2013-05-03 12:14:00,72.4,42.4,30.20,East,83,3.0,4.0,34,0.00,,,0.00,Wunderground v.1.15,2013-05-03 16:14:00,
2013-05-03 12:19:00,72.8,42.0,30.20,NE,41,2.0,5.0,33,0.00,,,0.00,Wunderground v.1.15,2013-05-03 16:19:00,
2013-05-03 12:24:00,73.7,43.6,30.20,East,84,2.0,5.0,34,0.00,,,0.00,Wunderground v.1.15,2013-05-03 16:24:00,
2013-05-03 12:29:00,74.0,44.6,30.19,East,93,2.0,5.0,35,0.00,,,0.00,Wunderground v.1.15,2013-05-03 16:29:00,
2013-05-03 12:34:00,74.1,42.3,30.19,NW,311,3.0,4.0,32,0.00,,,0.00,Wunderground v.1.15,2013-05-03 16:34:00,
2013-05-03 12:39:00,73.5,42.6,30.19,SW,226,4.0,9.0,33,0.00,,,0.00,Wunderground v.1.15,2013-05-03 16:39:00,
2013-05-03 12:45:00,73.3,42.4,30.19,East,91,4.0,7.0,33,0.00,,,0.00,Wunderground v.1.15,2013-05-03 16:45:00,
2013-05-03 12:50:00,73.2,42.4,30.18,East,79,3.0,3.0,33,0.00,,,0.00,Wunderground v.1.15,2013-05-03 16:50:00,
2013-05-03 12:55:00,73.4,44.1,30.18,East,98,3.0,5.0,35,0.00,,,0.00,Wunderground v.1.15,2013-05-03 16:55:00,
2013-05-03 13:01:00,73.7,45.1,30.18,ENE,75,3.0,3.0,36,0.00,,,0.00,Wunderground v.1.15,2013-05-03 17:01:00,
2013-05-03 13:06:00,74.2,44.8,30.18,SE,127,3.0,3.0,35,0.00,,,0.00,Wunderground v.1.15,2013-05-03 17:06:00,
2013-05-03 13:11:00,74.6,45.9,30.18,East,86,2.0,3.0,36,0.00,,,0.00,Wunderground v.1.15,2013-05-03 17:11:00,
2013-05-03 13:16:00,74.6,45.1,30.17,NE,54,3.0,6.0,35,0.00,,,0.00,Wunderground v.1.15,2013-05-03 17:16:00,
2013-05-03 13:21:00,74.4,43.4,30.17,East,79,4.0,8.0,33,0.00,,,0.00,Wunderground v.1.15,2013-05-03 17:21:00,
2013-05-03 13:27:00,74.2,44.8,30.17,East,101,4.0,8.0,35,0.00,,,0.00,Wunderground v.1.15,2013-05-03 17:27:00,
2013-05-03 13:32:00,74.4,44.2,30.17,SE,127,3.0,4.0,34,0.00,,,0.00,Wunderground v.1.15,2013-05-03 17:32:00,
2013-05-03 13:37:00,74.6,43.6,30.17,East,83,3.0,8.0,33,0.00,,,0.00,Wunderground v.1.15,2013-05-03 17:37:00,
2013-05-03 13:42:00,74.7,43.7,30.17,East,96,3.0,3.0,33,0.00,,,0.00,Wunderground v.1.15,2013-05-03 17:42:00,
2013-05-03 13:48:00,74.6,43.6,30.17,East,95,2.0,5.0,33,0.00,,,0.00,Wunderground v.1.15,2013-05-03 17:48:00,
2013-05-03 13:53:00,74.2,42.4,30.17,ESE,117,3.0,6.0,32,0.00,,,0.00,Wunderground v.1.15,2013-05-03 17:53:00,
2013-05-03 13:58:00,74.8,43.8,30.17,ESE,110,3.0,7.0,33,0.00,,,0.00,Wunderground v.1.15,2013-05-03 17:58:00,
2013-05-03 14:03:00,74.9,45.4,30.16,East,81,3.0,8.0,35,0.00,,,0.00,Wunderground v.1.15,2013-05-03 18:03:00,
2013-05-03 14:08:00,75.1,44.8,30.16,East,91,3.0,8.0,34,0.00,,,0.00,Wunderground v.1.15,2013-05-03 18:08:00,
2013-05-03 14:14:00,75.6,44.5,30.16,ESE,109,3.0,5.0,33,0.00,,,0.00,Wunderground v.1.15,2013-05-03 18:14:00,
2013-05-03 14:19:00,75.5,43.6,30.16,NE,56,3.0,5.0,32,0.00,,,0.00,Wunderground v.1.15,2013-05-03 18:19:00,
2013-05-03 14:24:00,76.3,45.1,30.15,SW,235,3.0,3.0,33,0.00,,,0.00,Wunderground v.1.15,2013-05-03 18:24:00,
2013-05-03 14:29:00,76.2,45.0,30.15,ENE,72,3.0,5.0,33,0.00,,,0.00,Wunderground v.1.15,2013-05-03 18:29:00,
2013-05-03 14:34:00,76.7,43.8,30.15,East,94,3.0,6.0,31,0.00,,,0.00,Wunderground v.1.15,2013-05-03 18:34:00,
2013-05-03 14:40:00,76.7,46.2,30.15,ESE,112,3.0,3.0,34,0.00,,,0.00,Wunderground v.1.15,2013-05-03 18:40:00,
2013-05-03 14:45:00,76.8,44.7,30.15,NE,53,3.0,3.0,32,0.00,,,0.00,Wunderground v.1.15,2013-05-03 18:45:00,
2013-05-03 14:50:00,76.0,41.4,30.15,ENE,78,4.0,5.0,29,0.00,,,0.00,Wunderground v.1.15,2013-05-03 18:50:00,
2013-05-03 14:55:00,75.6,44.5,30.15,East,101,5.0,5.0,33,0.00,,,0.00,Wunderground v.1.15,2013-05-03 18:55:00,
2013-05-03 15:00:00,76.0,42.3,30.14,SE,124,4.0,4.0,30,0.00,,,0.00,Wunderground v.1.15,2013-05-03 19:00:00,
2013-05-03 15:06:00,76.5,41.9,30.14,East,86,3.0,5.0,29,0.00,,,0.00,Wunderground v.1.15,2013-05-03 19:06:00,
2013-05-03 15:11:00,76.8,43.9,30.14,ESE,122,3.0,3.0,31,0.00,,,0.00,Wunderground v.1.15,2013-05-03 19:11:00,
2013-05-03 15:16:00,77.0,42.3,30.14,ESE,105,3.0,4.0,29,0.00,,,0.00,Wunderground v.1.15,2013-05-03 19:16:00,
2013-05-03 15:21:00,76.9,43.1,30.14,ESE,115,3.0,3.0,30,0.00,,,0.00,Wunderground v.1.15,2013-05-03 19:21:00,
2013-05-03 15:27:00,76.6,42.8,30.14,SE,125,3.0,5.0,30,0.00,,,0.00,Wunderground v.1.15,2013-05-03 19:27:00,
2013-05-03 15:32:00,77.0,43.2,30.14,SW,229,3.0,3.0,30,0.00,,,0.00,Wunderground v.1.15,2013-05-03 19:32:00,
2013-05-03 15:37:00,77.1,43.3,30.14,East,95,3.0,3.0,30,0.00,,,0.00,Wunderground v.1.15,2013-05-03 19:37:00,
2013-05-03 15:43:00,77.5,41.8,30.14,SSW,196,3.0,5.0,28,0.00,,,0.00,Wunderground v.1.15,2013-05-03 19:43:00,
2013-05-03 15:48:00,77.1,42.4,30.13,SSW,212,3.0,8.0,29,0.00,,,0.00,Wunderground v.1.15,2013-05-03 19:48:00,
2013-05-03 15:53:00,77.4,43.5,30.14,ESE,108,3.0,8.0,30,0.00,,,0.00,Wunderground v.1.15,2013-05-03 19:53:00,
2013-05-03 15:58:00,76.9,43.1,30.13,WNW,301,3.0,8.0,30,0.00,,,0.00,Wunderground v.1.15,2013-05-03 19:58:00,
2013-05-03 16:03:00,77.1,43.3,30.13,ESE,105,2.0,6.0,30,0.00,,,0.00,Wunderground v.1.15,2013-05-03 20:03:00,
2013-05-03 16:09:00,76.9,42.2,30.13,SW,226,3.0,6.0,29,0.00,,,0.00,Wunderground v.1.15,2013-05-03 20:09:00,
2013-05-03 16:14:00,77.3,42.6,30.13,SW,228,2.0,3.0,29,0.00,,,0.00,Wunderground v.1.15,2013-05-03 20:14:00,
2013-05-03 16:19:00,77.6,41.0,30.13,East,95,2.0,3.0,27,0.00,,,0.00,Wunderground v.1.15,2013-05-03 20:19:00,
2013-05-03 16:24:00,77.4,42.6,30.12,NE,50,2.0,8.0,29,0.00,,,0.00,Wunderground v.1.15,2013-05-03 20:24:00,
2013-05-03 16:29:00,77.3,41.6,30.12,East,81,2.0,8.0,28,0.00,,,0.00,Wunderground v.1.15,2013-05-03 20:29:00,
2013-05-03 16:34:00,77.3,43.4,30.12,WNW,297,2.0,4.0,30,0.00,,,0.00,Wunderground v.1.15,2013-05-03 20:34:00,
2013-05-03 16:39:00,77.3,43.4,30.12,SE,131,2.0,4.0,30,0.00,,,0.00,Wunderground v.1.15,2013-05-03 20:39:00,
2013-05-03 16:45:00,77.3,42.6,30.12,East,87,2.0,4.0,29,0.00,,,0.00,Wunderground v.1.15,2013-05-03 20:45:00,
2013-05-03 16:50:00,76.9,42.2,30.12,East,94,2.0,2.0,29,0.00,,,0.00,Wunderground v.1.15,2013-05-03 20:50:00,
2013-05-03 16:55:00,76.7,42.9,30.12,NNE,19,3.0,3.0,30,0.00,,,0.00,Wunderground v.1.15,2013-05-03 20:55:00,
2013-05-03 17:00:00,76.7,42.9,30.12,East,86,2.0,2.0,30,0.00,,,0.00,Wunderground v.1.15,2013-05-03 21:00:00,
2013-05-03 17:05:00,76.7,42.0,30.12,East,92,3.0,4.0,29,0.00,,,0.00,Wunderground v.1.15,2013-05-03 21:05:00,
2013-05-03 17:10:00,76.5,41.9,30.12,East,99,2.0,2.0,29,0.00,,,0.00,Wunderground v.1.15,2013-05-03 21:10:00,
2013-05-03 17:16:00,76.4,42.7,30.12,ENE,67,2.0,5.0,30,0.00,,,0.00,Wunderground v.1.15,2013-05-03 21:16:00,
2013-05-03 17:21:00,76.3,43.4,30.11,SSE,163,2.0,2.0,31,0.00,,,0.00,Wunderground v.1.15,2013-05-03 21:21:00,
2013-05-03 17:26:00,76.6,42.8,30.11,ESE,110,2.0,3.0,30,0.00,,,0.00,Wunderground v.1.15,2013-05-03 21:26:00,
2013-05-03 17:31:00,76.4,42.7,30.12,East,93,2.0,3.0,30,0.00,,,0.00,Wunderground v.1.15,2013-05-03 21:31:00,
2013-05-03 17:37:00,76.5,43.6,30.12,NNE,31,2.0,3.0,31,0.00,,,0.00,Wunderground v.1.15,2013-05-03 21:37:00,
2013-05-03 17:42:00,76.4,42.7,30.11,ESE,121,1.0,2.0,30,0.00,,,0.00,Wunderground v.1.15,2013-05-03 21:42:00,
2013-05-03 17:47:00,76.2,42.5,30.12,ENE,75,2.0,4.0,30,0.00,,,0.00,Wunderground v.1.15,2013-05-03 21:47:00,
2013-05-03 17:52:00,76.1,42.4,30.12,SSE,148,2.0,2.0,30,0.00,,,0.00,Wunderground v.1.15,2013-05-03 21:52:00,
2013-05-03 17:57:00,75.8,43.0,30.11,SE,126,2.0,3.0,31,0.00,,,0.00,Wunderground v.1.15,2013-05-03 21:57:00,
2013-05-03 18:02:00,75.6,41.1,30.11,East,100,2.0,5.0,29,0.00,,,0.00,Wunderground v.1.15,2013-05-03 22:02:00,
2013-05-03 18:08:00,75.3,41.7,30.12,ESE,110,2.0,5.0,30,0.00,,,0.00,Wunderground v.1.15,2013-05-03 22:08:00,
2013-05-03 18:13:00,75.3,43.4,30.12,East,94,2.0,3.0,32,0.00,,,0.00,Wunderground v.1.15,2013-05-03 22:13:00,
2013-05-03 18:18:00,75.3,43.4,30.11,WNW,295,2.0,3.0,32,0.00,,,0.00,Wunderground v.1.15,2013-05-03 22:18:00,
2013-05-03 18:23:00,75.4,41.8,30.11,ENE,59,1.0,2.0,30,0.00,,,0.00,Wunderground v.1.15,2013-05-03 22:23:00,
2013-05-03 18:29:00,75.0,42.3,30.11,SE,126,2.0,3.0,31,0.00,,,0.00,Wunderground v.1.15,2013-05-03 22:29:00,
2013-05-03 18:34:00,74.7,42.0,30.12,East,95,1.0,4.0,31,0.00,,,0.00,Wunderground v.1.15,2013-05-03 22:34:00,
2013-05-03 18:39:00,74.4,40.9,30.12,ESE,114,1.0,4.0,30,0.00,,,0.00,Wunderground v.1.15,2013-05-03 22:39:00,
2013-05-03 18:44:00,74.2,41.6,30.11,ESE,103,1.0,4.0,31,0.00,,,0.00,Wunderground v.1.15,2013-05-03 22:44:00,
2013-05-03 18:49:00,73.8,41.3,30.12,East,91,2.0,4.0,31,0.00,,,0.00,Wunderground v.1.15,2013-05-03 22:49:00,
2013-05-03 18:54:00,73.6,41.9,30.12,East,95,1.0,3.0,32,0.00,,,0.00,Wunderground v.1.15,2013-05-03 22:54:00,
2013-05-03 19:00:00,73.3,42.4,30.12,ESE,114,1.0,3.0,33,0.00,,,0.00,Wunderground v.1.15,2013-05-03 23:00:00,
2013-05-03 19:05:00,72.9,42.1,30.12,East,101,1.0,3.0,33,0.00,,,0.00,Wunderground v.1.15,2013-05-03 23:05:00,
2013-05-03 19:10:00,72.5,42.5,30.12,SSE,153,1.0,1.0,34,0.00,,,0.00,Wunderground v.1.15,2013-05-03 23:10:00,
2013-05-03 19:15:00,72.0,41.3,30.12,East,98,1.0,3.0,33,0.00,,,0.00,Wunderground v.1.15,2013-05-03 23:15:00,
2013-05-03 19:21:00,71.7,43.3,30.12,ESE,110,1.0,2.0,36,0.00,,,0.00,Wunderground v.1.15,2013-05-03 23:21:00,
2013-05-03 19:26:00,71.4,42.3,30.12,East,82,1.0,2.0,35,0.00,,,0.00,Wunderground v.1.15,2013-05-03 23:26:00,
2013-05-03 19:31:00,71.1,41.3,30.12,NNE,27,1.0,2.0,34,0.00,,,0.00,Wunderground v.1.15,2013-05-03 23:31:00,
2013-05-03 19:36:00,70.9,41.9,30.12,NW,308,1.0,2.0,35,0.00,,,0.00,Wunderground v.1.15,2013-05-03 23:36:00,
2013-05-03 19:41:00,70.7,42.4,30.13,South,176,0.0,2.0,36,0.00,,,0.00,Wunderground v.1.15,2013-05-03 23:41:00,
2013-05-03 19:46:00,70.2,42.7,30.13,ESE,122,0.0,2.0,37,0.00,,,0.00,Wunderground v.1.15,2013-05-03 23:46:00,
2013-05-03 19:52:00,69.6,42.9,30.13,ESE,108,1.0,2.0,38,0.00,,,0.00,Wunderground v.1.15,2013-05-03 23:52:00,
2013-05-03 19:57:00,69.2,41.8,30.13,ESE,108,1.0,2.0,37,0.00,,,0.00,Wunderground v.1.15,2013-05-03 23:57:00,
2013-05-03 20:02:00,68.8,42.1,30.13,SSE,167,1.0,2.0,38,0.00,,,0.00,Wunderground v.1.15,2013-05-04 00:02:00,
2013-05-03 20:07:00,68.5,43.2,30.13,ESE,115,1.0,2.0,40,0.00,,,0.00,Wunderground v.1.15,2013-05-04 00:07:00,
2013-05-03 20:13:00,68.0,42.8,30.13,East,98,0.0,2.0,40,0.00,,,0.00,Wunderground v.1.15,2013-05-04 00:13:00,
2013-05-03 20:18:00,67.5,43.0,30.13,SE,143,0.0,2.0,41,0.00,,,0.00,Wunderground v.1.15,2013-05-04 00:18:00,
2013-05-03 20:23:00,66.9,42.4,30.14,South,176,0.0,2.0,41,0.00,,,0.00,Wunderground v.1.15,2013-05-04 00:23:00,
2013-05-03 20:29:00,66.5,42.7,30.14,ESE,118,0.0,2.0,42,0.00,,,0.00,Wunderground v.1.15,2013-05-04 00:29:00,
2013-05-03 20:34:00,66.2,42.4,30.14,ESE,120,0.0,2.0,42,0.00,,,0.00,Wunderground v.1.15,2013-05-04 00:34:00,
2013-05-03 20:39:00,65.8,42.7,30.14,ESE,118,0.0,2.0,43,0.00,,,0.00,Wunderground v.1.15,2013-05-04 00:39:00,
2013-05-03 20:44:00,65.3,42.8,30.14,ESE,120,0.0,2.0,44,0.00,,,0.00,Wunderground v.1.15,2013-05-04 00:44:00,
2013-05-03 20:49:00,64.7,42.9,30.14,ESE,120,0.0,2.0,45,0.00,,,0.00,Wunderground v.1.15,2013-05-04 00:49:00,
2013-05-03 20:54:00,64.1,43.4,30.14,ESE,120,0.0,2.0,47,0.00,,,0.00,Wunderground v.1.15,2013-05-04 00:54:00,
2013-05-03 21:00:00,63.5,42.9,30.15,ESE,120,0.0,2.0,47,0.00,,,0.00,Wunderground v.1.15,2013-05-04 01:00:00,
2013-05-03 21:05:00,63.0,43.0,30.15,ESE,120,0.0,2.0,48,0.00,,,0.00,Wunderground v.1.15,2013-05-04 01:05:00,
2013-05-03 21:10:00,62.6,43.7,30.15,ESE,120,0.0,2.0,50,0.00,,,0.00,Wunderground v.1.15,2013-05-04 01:10:00,
2013-05-03 21:15:00,62.5,44.1,30.15,ESE,106,0.0,2.0,51,0.00,,,0.00,Wunderground v.1.15,2013-05-04 01:15:00,
2013-05-03 21:20:00,62.2,44.3,30.15,ESE,104,0.0,2.0,52,0.00,,,0.00,Wunderground v.1.15,2013-05-04 01:20:00,
2013-05-03 21:25:00,62.0,44.7,30.16,ESE,104,0.0,2.0,53,0.00,,,0.00,Wunderground v.1.15,2013-05-04 01:25:00,
2013-05-03 21:30:00,61.8,44.5,30.16,SW,233,0.0,2.0,53,0.00,,,0.00,Wunderground v.1.15,2013-05-04 01:30:00,
2013-05-03 21:36:00,61.6,43.8,30.16,ESE,113,0.0,2.0,52,0.00,,,0.00,Wunderground v.1.15,2013-05-04 01:36:00,
2013-05-03 21:41:00,61.8,44.0,30.16,East,90,0.0,2.0,52,0.00,,,0.00,Wunderground v.1.15,2013-05-04 01:41:00,
2013-05-03 21:46:00,61.9,44.1,30.16,East,91,0.0,2.0,52,0.00,,,0.00,Wunderground v.1.15,2013-05-04 01:46:00,
2013-05-03 21:51:00,61.7,43.4,30.16,East,91,0.0,2.0,51,0.00,,,0.00,Wunderground v.1.15,2013-05-04 01:51:00,
2013-05-03 21:56:00,61.6,43.3,30.16,East,85,0.0,2.0,51,0.00,,,0.00,Wunderground v.1.15,2013-05-04 01:56:00,
2013-05-03 22:02:00,61.4,43.6,30.16,ESE,119,0.0,2.0,52,0.00,,,0.00,Wunderground v.1.15,2013-05-04 02:02:00,
2013-05-03 22:07:00,61.1,43.8,30.16,ESE,119,0.0,2.0,53,0.00,,,0.00,Wunderground v.1.15,2013-05-04 02:07:00,
2013-05-03 22:12:00,60.9,43.6,30.16,ESE,117,0.0,2.0,53,0.00,,,0.00,Wunderground v.1.15,2013-05-04 02:12:00,
2013-05-03 22:17:00,60.8,44.5,30.16,SW,226,0.0,2.0,55,0.00,,,0.00,Wunderground v.1.15,2013-05-04 02:17:00,
2013-05-03 22:22:00,60.6,43.9,30.16,SSW,203,0.0,2.0,54,0.00,,,0.00,Wunderground v.1.15,2013-05-04 02:22:00,
2013-05-03 22:28:00,60.3,43.1,30.16,SE,146,0.0,2.0,53,0.00,,,0.00,Wunderground v.1.15,2013-05-04 02:28:00,
2013-05-03 22:33:00,60.1,43.4,30.17,SE,146,0.0,2.0,54,0.00,,,0.00,Wunderground v.1.15,2013-05-04 02:33:00,
2013-05-03 22:38:00,59.9,43.2,30.17,SSE,147,0.0,2.0,54,0.00,,,0.00,Wunderground v.1.15,2013-05-04 02:38:00,
2013-05-03 22:43:00,59.8,43.6,30.17,East,94,0.0,2.0,55,0.00,,,0.00,Wunderground v.1.15,2013-05-04 02:43:00,
2013-05-03 22:48:00,59.6,43.4,30.17,East,94,0.0,2.0,55,0.00,,,0.00,Wunderground v.1.15,2013-05-04 02:48:00,
2013-05-03 22:54:00,59.3,43.1,30.17,East,94,0.0,2.0,55,0.00,,,0.00,Wunderground v.1.15,2013-05-04 02:54:00,
2013-05-03 22:59:00,59.1,43.9,30.17,East,94,0.0,2.0,57,0.00,,,0.00,Wunderground v.1.15,2013-05-04 02:59:00,
2013-05-03 23:04:00,59.1,43.4,30.17,East,92,0.0,2.0,56,0.00,,,0.00,Wunderground v.1.15,2013-05-04 03:04:00,
2013-05-03 23:09:00,59.1,43.4,30.17,SSE,167,0.0,2.0,56,0.00,,,0.00,Wunderground v.1.15,2013-05-04 03:09:00,
2013-05-03 23:15:00,59.1,44.3,30.17,ESE,110,0.0,2.0,58,0.00,,,0.00,Wunderground v.1.15,2013-05-04 03:15:00,
2013-05-03 23:20:00,59.3,43.1,30.17,East,96,0.0,2.0,55,0.00,,,0.00,Wunderground v.1.15,2013-05-04 03:20:00,
2013-05-03 23:25:00,59.4,44.2,30.17,SE,136,0.0,2.0,57,0.00,,,0.00,Wunderground v.1.15,2013-05-04 03:25:00,
2013-05-03 23:30:00,59.2,43.0,30.17,SE,145,0.0,2.0,55,0.00,,,0.00,Wunderground v.1.15,2013-05-04 03:30:00,
2013-05-03 23:35:00,59.3,43.6,30.17,SW,214,0.0,2.0,56,0.00,,,0.00,Wunderground v.1.15,2013-05-04 03:35:00,
2013-05-03 23:40:00,59.2,43.0,30.17,ESE,116,0.0,2.0,55,0.00,,,0.00,Wunderground v.1.15,2013-05-04 03:40:00,
2013-05-03 23:46:00,59.1,43.9,30.17,SSW,208,0.0,2.0,57,0.00,,,0.00,Wunderground v.1.15,2013-05-04 03:46:00,
2013-05-03 23:51:00,58.8,43.6,30.17,SE,129,0.0,2.0,57,0.00,,,0.00,Wunderground v.1.15,2013-05-04 03:51:00,
2013-05-03 23:56:00,58.5,43.8,30.17,SE,129,0.0,2.0,58,0.00,,,0.00,Wunderground v.1.15,2013-05-04 03:56:00,